Погода в Никольске

Хотите узнать прогноз погоды в Никольске? Тогда Вам сюда: Погода в Никольске

Поиск расширенной информации на нашем сайте:

Полезная информация:

Новости сайта



02.01.2020
Опубликован Долгосрочный прогноз погоды по городам России и ближнего зарубежья на январь 2020 года.
Карты: Прогноз на январь и февраль 2020 года, Сравнение прогнозируемой аномалии приземной температуры воздуха на январь 2020 года по разным моделям.




Погода в Никольске - сегодня

Время (UTC), дата Ветер
(°,м/с) 
Видим.   Явления Облачность Т
(°С)
Тd
(°С)
f(%) Тe
(°С)
Pmin
(гПа)
dP
(гПа)
Po
(мм)
O2
(г/м3)
Тmin Tmax R s Состояние
почвы
18 29.11.20 140 (ЮВ) 20000 м    10/10 270 м 
[Sc]
-4.9 -5.5 96 -4  1042.7  -0.3  768  316           
21 29.11.20 160 (Ю) 20000 м    10/10 270 м 
[Sc]
-3.9 -4.7 94 -6  1042.6  768  314           
00 30.11.20 150 (ЮВ) 20000 м    10/10 240 м 
[Sc]
-3.6 -4.1 96 -5  1042.3  -0.2  768  314           
03 30.11.20 150 (ЮВ) 20000 м    10/10 210 м 
[Sc]
-2.9 -3.3 97 -4  1041.7  -0.6  767  313  -5.5      равномерный
сухой снег
100% 
06 30.11.20 150 (ЮВ) 20000 м  {ливн. осадки}  10/10 210 м 
[Sc]
-2.2 -2.8 96 -3  1041.1  -0.6  767  312           
09 30.11.20 150 (ЮВ) 20000 м    10/10 210 м 
[Sc]
-1.2 -1.9 95 -2  1040.3  -0.6  766  310           
12 30.11.20 140 (ЮВ) 20000 м    9/8 240 м средняя 
[Sc|Ac trans]
-1.4 -2.8 90 -2  1039.3  -1  766  310           
15 30.11.20 150 (ЮВ) 20000 м    6/3 600 м средняя, верхняя 
[Sc|Ac trans|Ci sp]
-3.3 -4.7 90 -5  1037.8  -1.6  764  312    -0.6  0.0     
18 30.11.20 160 (Ю) 20000 м    10/10 300 м 
[Sc]
-3 -4.3 91 -5  1037.1  -0.7  764  312           
21 30.11.20 170 (Ю) 20000 м    10/10 360 м 
[Sc]
-4 -6.2 85 -7  1037.7  0.5  764  313           
00 01.12.20 160 (Ю) 20000 м    9/8 540 м средняя 
[Sc|Ac trans]
-6.4 -8.3 86 -9  1037.6  -0.3  764  316           
03 01.12.20 170 (Ю) 20000 м    5/3 600 м средняя 
[Sc|Ac trans]
-7.3 -9.4 85 -10  1036.9  -0.7  764  317  -7.3      равномерный
сухой снег
100% 
06 01.12.20 170 (Ю) 20000 м    8/3 600 м средняя, верхняя 
[Sc|Ac trans|Ci sp]
-7 -9.5 82 -11  1037.1  0.2  764  317           
09 01.12.20 170 (Ю) 20000 м    9/3 600 м средняя, верхняя 
[Sc|Ac trans|Ci sp]
-5.4 -8.7 78 -8  1036.8  -0.2  764  315           
12 01.12.20 170 (Ю) 20000 м    9/3 600 м средняя, верхняя 
[Sc|Ac trans|Ci sp]
-5.6 -8.6 79 -9  1036.5  -0.3  763  315           
15 01.12.20 170 (Ю) 20000 м    6/3 600 м средняя, верхняя 
[Sc|Ac trans|Ci sp]
-6.1 -8.4 84 -9  1037  0.4  764  316    -5.1       
18 01.12.20 170 (Ю) 20000 м    8/3 300 м средняя, верхняя 
[Sc|Ac trans|Ci sp]
-6.5 -8.9 83 -8  1037  764  316           
21 01.12.20 170 (Ю) 20000 м    9/0 средняя, верхняя 
[Ac trans|Ci sp]
-6.3 -8.6 84 -9  1037.4  0.4  764  316           
00 02.12.20 170 (Ю) 20000 м    10/8 360 м средняя 
[Sc|Ac und]
-6.3 -8.2 86 -8  1037.5  0.1  764  316           
03 02.12.20 170 (Ю) 10 км  слаб. ливневой снег  10/8 600 м кучево-дожд., средняя 
[Cb cap|Ac und]
-7.1 -8.4 90 -9  1037.6  0.1  764  317  -7.1    0.6  равномерный
сухой снег
100% 
06 02.12.20 170 (Ю) 20000 м  {ливн. осадки}  10/10 360 м 
[Sc]
-6.8 -8.4 88 -9  1038  0.4  764  317  -7.2         
09 02.12.20 180 (Ю) 20000 м    10/10 360 м 
[Sc]
-6.1 -7.6 89 -8  1038.3  0.3  765  316           
12 02.12.20 190 (Ю) 20000 м    10/10 330 м 
[Sc]
-5.9 -7.4 89 -7  1038.5  0.2  765  316           
15 02.12.20 190 (Ю) 20000 м    10/10 300 м 
[Sc]
-6.1 -7.2 92 -8  1038.9  0.4  765  316    -5.8  0.0     
18 02.12.20 200 (Ю) 20000 м    10/10 240 м 
[Sc]
-6 -7.1 92 -6  1039.3  0.4  765  316           
Время (UTC), дата Ветер
(°,м/с) 
Видим.   Явления Облачность Т
(°С)
Тd
(°С)
f(%) Тe
(°С)
Pmin
(гПа)
dP
(гПа)
Po
(мм)
O2
(г/м3)
Тmin Tmax R s Состояние
почвы

Для получения пояснительной информации подведите курсор к названию столбца.

ПОГОДА в Никольске - архив

Всё, что Вы хотите узнать о погоде в Никольске - удобно и подробно!

Выберите нужную дату (начиная с 1 января 2019* года) и нажмите кнопку "Найти".
Будут отображены архивные сводки погоды по пункту Никольск, начиная с указанной даты.


Отображать данные в формате CSV (для использования в таблицах Excel)


Внимание! Наш архив погоды предназначен исключительно для личного некоммерческого использования в познавательных целях. Если Вам необходимы официальные справки о состоянии погоды (для производственных, юридических, коммерческих и т.п. целей), обращайтесь в органы Росгидромета.

*Примечание: данная дата относится к архиву по метеостанциям СССР (Россия, СНГ, Балтия).
Архив по метеостанциям Зарубежной Европы и Азии (кроме Китая) хранится 10 дней, по другим регионам земного шара (Китай, Африка, Америка, Австралия, Океания) - 1 день.

Никольск - район местоположения метеостанции


Название, широта, долгота, высота метеостанции:
Никольск 59.4°ш. 45.5°д. 143 м над ур. моря [Российская Федерация]

Дополнительная информация

В oтличие oт бoльшинства пoгoдных сайтoв мы публикуем пoдрoбную метеoинфoрмацию в детальнoм прoфессиoнальнoм фoрмате.

Характеристики температуры и влажнoсти вoздуха измеряются на высoте 2 м в тени вдали oт зданий и деревьев.
Скoрoсть ветра измеряется на высoте 10 м (на урoвне рoста челoвека скoрoсть ветра ниже в 1.5-2 раза). Если метеoстанция нахoдится в гoрoде или в лесу, тo скoрoсть ветра занижена на 2-4 м/с пo сравнению с oткрытым местoм. Скoрoсть ветра над акватoриями крупных рек и oзёр, а также на вершинах хoлмoв на 2-5 м/с выше, чем в oбычных услoвиях.
Атмoсфернoе давление в разных тoчках местнoсти мoжет значительнo oтличаться oт давления на метеoстанции, в зависимoсти oт услoвий рельефа (при пoдъёме на 10 м давление пoнижается примернo на 1 мм рт.ст.).